Regional Weather Roundup
Issued by NWS

Home | Current Version | Previous Version | Text Only | Print | Product List | Glossary On
Versions: 1 2 3 4 5 6 7 8 9 10 11 12 13 14 15 16 17 18 19 20 21 22 23 24 25 26 27 28 29 30 31 32 33 34 35 36 37 38 39 40 41 42 43 44 45 46 47 48 49 50
000
ASUS43 KLSX 111057
RWRMO

WEATHER SUMMARY FOR MISSOURI
NATIONAL WEATHER SERVICE SPRINGFIELD MO
500 AM CST THU FEB 11 2016

NOTE: "FAIR" INDICATES FEW OR NO CLOUDS BELOW 12,000 FEET WITH NO
       SIGNIFICANT WEATHER AND/OR OBSTRUCTIONS TO VISIBILITY.
       CURRENT SKY AND/OR WEATHER CONDITIONS ARE NOT AVAILABLE FOR
       CHILLICOTHE AND FARMINGTON.

MOZ001>031-035>038-043-044-053-054-111200-
...NORTHERN AND WESTERN MISSOURI...

CITY           SKY/WX    TMP DP  RH WIND       PRES   REMARKS
KANSAS CTY INT PTCLDY    22  19  89 NE8       30.19R WCI  12
LEE`S SUMMIT   CLEAR     22  18  85 NE9       30.19R WCI  12
ST JOSEPH      CLOUDY    24  19  81 NE9       30.23R WCI  14
CHILLICOTHE      N/A     23  17  78 NE7G17    30.24R WCI  15

$$
MOZ066>068-077>081-088>096-101>105-111200-
...SOUTHWEST MISSOURI...

CITY           SKY/WX    TMP DP  RH WIND       PRES   REMARKS
SPRINGFIELD    CLOUDY    26  16  65 NE6       30.06R WCI  19
JOPLIN         CLOUDY    29  22  75 NE9       30.08R WCI  20

$$
MOZ032>034-039>042-045>050-055>058-069>072-111200-
...CENTRAL MISSOURI...

CITY           SKY/WX    TMP DP  RH WIND       PRES   REMARKS
COLUMBIA       NOT AVBL
JEFFERSON CITY CLOUDY    23  18  81 NE9       30.22R WCI  13
ROLLA          PTCLDY    20  16  84 NE7       30.14R WCI  11
SEDALIA        CLOUDY    23  18  81 NE8       30.21R WCI  14

$$
MOZ051-052-059>065-111200-
...EAST CENTRAL MISSOURI...

CITY           SKY/WX    TMP DP  RH WIND       PRES   REMARKS
ST LOUIS INTL  NOT AVBL

$$
MOZ072>076-082>087-097>100-106>115-111200-
...SOUTH CENTRAL AND SOUTHEAST MISSOURI...

CITY           SKY/WX    TMP DP  RH WIND       PRES   REMARKS
CAPE GIRARDEAU MOCLDY    24  20  84 E6        30.18R WCI  17
POPLAR BLUFF   CLEAR     23  19  85 NE8       30.15R WCI  14
WEST PLAINS    CLOUDY    22  11  62 NE9       30.08R WCI  12

$$


USA.gov is the U.S. government's official web portal to all federal, state and local government web resources and services.